Regional Weather Roundup
Issued by NWS Charleston, WV

Home | Current Version | Previous Version | Graphics & Text | Print | Product List | Glossary On
Versions: 1 2 3 4 5 6 7 8 9 10 11 12 13 14 15 16 17 18 19 20 21 22 23 24 25 26 27 28 29 30 31 32 33 34 35 36 37 38 39 40 41 42 43 44 45 46 47 48 49 50
000
ASUS41 KRLX 100110
RWRRLX
West Virginia Regional Weather Roundup
National Weather Service Charleston WV
900 PM EDT WED JUL 09 2014

Note: "fair" indicates few or no clouds below 12,000 feet with no
significant weather and/or obstructions to visibility.

WVZ003-100200-
Northern Panhandle of West Virginia

CITY           SKY/WX    TMP DP  RH WIND       PRES   REMARKS
WHEELING       MOCLDY    74  56  53 W5        29.97R
$$

WVZ009-100200-
Northwest West Virginia

CITY           SKY/WX    TMP DP  RH WIND       PRES   REMARKS
PARKERSBURG    CLEAR     75  63  66 CALM      29.99R
$$

WVZ006-100200-
Western West Virginia

CITY           SKY/WX    TMP DP  RH WIND       PRES   REMARKS
HUNTINGTON     PTCLDY    78  57  48 NW6       29.96R
$$

WVZ015-100200-
West Central West Virginia

CITY           SKY/WX    TMP DP  RH WIND       PRES   REMARKS
CHARLESTON     PTCLDY    75  67  76 N3        29.97R
$$

WVZ031-100200-
North Central West Virginia

CITY           SKY/WX    TMP DP  RH WIND       PRES   REMARKS
CLARKSBURG     CLEAR     76  59  55 CALM      29.98R
MORGANTOWN     CLEAR     78  57  48 SW3       29.99R
$$

WVZ035-042-045-100200-
South Central West Virginia

CITY           SKY/WX    TMP DP  RH WIND       PRES   REMARKS
BECKLEY        LGT RAIN  67  63  87 E3        30.06S FOG
BLUEFIELD      PTCLDY    72  61  68 CALM      30.09R
LEWISBURG      CLOUDY    74  60  60 CALM      30.05S
$$

WVZ047-100200-
Northern Mountains of West Virginia

CITY           SKY/WX    TMP DP  RH WIND       PRES   REMARKS
ELKINS         PTCLDY    68  62  81 CALM      30.03R
$$

WVZ052-100200-
Eastern Panhandle of West Virginia

CITY           SKY/WX    TMP DP  RH WIND       PRES   REMARKS
MARTINSBURG    MOCLDY    77  66  68 S3        29.93R
PETERSBURG     MOCLDY    72  59  64 NW5       29.98R
$$


USA.gov is the U.S. government's official web portal to all federal, state and local government web resources and services.